RH
88 88 93 90 82 81 82 84 85 86 86 88 89 92 93 94 89 88 86 97 100 91 91 90 84 85 79 96 88 48 62 66 66 70 73 74 82 79 82 72 67 80 70 65 64 63 63
84 92 95 84 87 82 81 84 88 90 89 90 89 90 95 89 94 90 85 94 97 100 92 83 87 80 89 80 44 52 51 60 59 63 66 72 77 70 76 81 83 70 76 74 69 72 67
86 87 85 87 87 78 84 88 86 88 90 89 88 92 90 90 92 88 79 95 95 100 92 80 89 84 92 75 46 52 54 49 55 59 66 63 70 71 75 87 71 73 89 78 69 68 76
83 86 86 90 86 80 81 87 90 92 92 89 91 92 96 77 80 77 57 96 94 97 90 84 91 91 89 51 51 42 41 40 44 58 57 68 71 82 86 78 81 85 75 91 58 62 67
85 86 91 89 80 77 82 89 92 86 78 78 79 88 94 75 72 79 62 92 86 89 82 83 95 88 87 50 43 37 37 40 52 61 64 71 73 88 87 92 86 82 92 92 78 58 62
92 91 92 90 81 80 89 91 85 85 90 92 93 86 84 75 74 76 62 84 84 81 92 88 85 80 64 45 40 44 37 46 53 64 72 80 90 94 93 92 95 92 84 75 79 64 66
96 97 97 94 85 85 91 88 86 93 95 98 91 90 82 78 73 84 52 83 91 86 86 82 74 68 50 40 41 42 42 47 55 61 88 85 96 86 86 75 88 92 95 91 67 67 78
97 93 97 96 85 89 90 87 88 90 87 100 87 84 93 76 76 78 82 82 77 74 80 71 65 66 54 42 53 50 47 59 70 87 78 82 98 75 69 69 72 72 86 75 72 70 71
96 98 97 92 85 90 91 84 87 88 86 94 98 78 76 79 75 80 87 87 78 78 79 63 64 64 48 43 54 59 51 57 66 72 68 80 65 52 54 60 73 68 70 72 69 58 60
97 99 94 96 87 89 91 88 86 85 90 92 91 84 80 79 74 81 89 75 71 77 94 77 62 55 48 50 59 45 48 57 62 66 61 66 54 53 54 60 66 88 60 61 64 78 91
98 98 90 96 88 89 91 90 81 86 90 82 77 83 78 75 65 85 78 81 73 70 92 69 65 49 50 58 53 54 49 56 70 64 58 43 56 58 64 61 60 71 61 70 70 81 73
99 96 84 97 88 91 92 90 88 88 93 85 93 72 74 78 82 82 80 74 72 86 97 71 58 67 59 53 48 51 54 53 51 60 55 58 47 48 54 54 59 56 69 68 71 80 95
98 98 80 94 88 92 91 88 90 84 92 92 86 74 61 74 87 74 75 77 90 94 58 72 69 64 65 53 52 50 53 59 68 74 76 64 53 49 46 64 59 66 79 91 91 94 97
95 99 82 93 89 93 93 93 90 92 72 82 90 88 96 98 82 74 68 92 89 79 76 57 56 56 56 49 50 53 53 68 62 65 86 86 78 54 48 54 68 76 80 97 97 97 96
94 98 86 94 89 95 94 94 94 89 71 71 79 87 92 92 81 72 89 93 96 73 68 63 56 59 61 47 50 51 65 79 68 69 82 87 72 51 50 51 64 77 87 84 99 99 91
94 93 89 94 73 81 94 91 87 66 69 73 72 81 80 76 74 81 87 86 77 60 64 59 59 51 60 53 52 48 74 68 80 68 66 61 81 55 56 56 54 66 67 77 90 92 96
93 91 91 86 50 67 67 74 45 57 66 69 75 91 71 70 72 88 97 82 70 57 59 54 58 57 51 51 51 64 75 63 64 73 58 64 68 59 68 71 72 68 78 85 83 94 96
90 96 93 78 52 67 60 84 49 61 56 61 86 95 68 69 88 93 90 66 59 65 58 51 49 49 51 52 61 67 68 64 60 66 60 64 73 94 74 59 51 56 63 87 87 89 91
90 92 88 80 54 65 59 70 60 79 64 67 95 97 60 74 89 95 67 62 65 66 64 56 53 50 43 46 56 63 65 53 56 62 67 65 85 90 60 49 50 66 60 68 87 87 96
91 91 90 82 61 62 59 57 61 43 77 66 93 96 92 92 94 90 71 67 65 57 55 53 51 45 43 49 52 56 62 53 51 50 58 63 88 70 74 67 68 75 63 61 79 93 92
90 94 96 85 68 50 64 56 59 54 59 70 93 96 92 99 91 90 68 61 64 61 53 55 56 56 48 46 44 54 52 54 44 53 61 59 75 78 63 65 58 65 59 55 74 77 84
89 93 95 89 73 48 59 58 57 55 58 66 86 92 93 94 88 85 76 66 65 60 54 52 61 56 55 58 54 54 54 55 54 59 60 75 87 92 83 68 79 65 56 48 50 56 63
87 93 98 94 78 54 55 56 64 56 58 73 82 83 91 80 85 81 79 69 61 53 50 50 50 56 56 49 41 45 58 66 63 63 65 79 91 93 80 78 77 58 62 50 65 62 66
84 91 91 94 84 64 49 59 61 62 60 73 85 82 92 83 83 73 69 64 60 56 53 55 54 47 48 44 39 49 56 60 62 69 67 71 92 93 91 78 34 32 59 60 70 67 72
79 91 93 96 92 70 49 60 58 66 60 64 78 80 92 90 80 62 61 62 55 54 57 56 54 54 62 51 67 67 81 64 69 72 73 74 84 92 80 93 53 59 67 73 75 60 71
78 88 94 96 97 77 55 62 62 65 67 69 70 74 82 90 74 62 62 60 69 65 62 55 50 51 58 68 62 74 67 62 64 76 73 72 78 89 93 77 50 36 55 61 55 67 75
80 84 94 95 99 84 63 59 67 65 70 67 71 78 75 91 84 56 65 65 56 60 66 66 55 51 56 67 84 77 54 56 73 70 67 91 93 82 94 93 66 45 69 60 58 19 86
83 82 92 99 98 88 72 58 70 73 70 77 68 69 75 89 83 61 57 59 60 61 61 59 54 64 66 70 86 89 62 60 67 53 65 62 85 90 86 84 42 69 70 59 48 76 82
86 82 90 97 98 93 79 60 68 74 77 76 85 84 78 89 82 63 60 56 50 51 69 68 57 66 69 73 89 94 84 94 64 52 53 63 54 58 60 53 38 70 53 63 70 74 79
Wind_Speed
25 24 22 22 25 28 28 27 26 25 25 24 23 22 19 13 14 17 16 14 9 4 3 3 4 4 1 2 7 9 11 11 11 10 12 8 7 5 5 4 7 14 16 15 18 18 19
25 27 24 27 26 27 27 27 28 27 26 25 23 21 21 17 12 15 16 13 11 6 5 4 3 1 2 2 1 15 12 13 9 12 11 9 6 7 4 4 5 4 8 14 14 16 13
26 27 27 27 27 29 28 28 27 28 27 26 25 22 20 19 12 12 16 14 10 5 4 4 4 2 0 9 5 14 9 11 13 15 4 8 3 1 2 4 7 8 12 15 16 13 9
25 26 26 27 27 27 28 29 30 31 30 28 25 23 18 17 14 11 15 16 8 3 2 3 4 4 5 5 9 7 8 8 9 14 11 4 3 2 3 4 4 4 3 4 4 0 5
24 25 26 27 30 29 30 31 31 29 30 28 25 22 18 14 11 9 11 11 7 3 5 6 3 3 7 8 2 9 9 5 11 9 9 5 3 5 3 3 2 3 5 7 9 6 8
23 25 27 29 32 31 33 31 29 32 33 32 28 20 17 10 7 9 10 3 5 5 7 6 1 2 5 2 0 2 6 7 4 3 2 3 3 2 3 1 3 4 8 7 11 7 10
24 24 26 30 32 31 30 29 30 31 35 30 25 18 13 4 5 7 8 7 5 4 2 5 4 2 2 9 2 3 6 3 1 0 4 4 2 7 10 8 9 6 8 11 12 11 8
26 23 25 31 31 31 30 30 31 31 33 32 26 13 8 1 1 7 1 3 3 2 2 8 4 5 9 4 2 2 5 3 4 5 3 4 7 11 12 11 11 11 8 12 8 12 6
30 22 23 30 29 30 30 30 31 32 31 32 23 19 9 4 5 6 4 4 3 1 4 3 3 3 4 3 2 3 5 2 5 4 7 5 6 6 3 5 6 5 5 5 10 12 5
32 17 24 29 26 29 30 29 31 33 32 30 25 13 8 6 6 4 5 3 2 1 3 5 3 2 1 1 2 1 1 1 2 4 4 5 3 4 5 4 3 4 3 7 10 8 3
28 20 25 27 25 28 30 29 30 33 31 29 21 15 14 11 4 4 5 6 1 2 5 4 2 3 2 1 2 2 1 1 3 4 4 6 3 4 2 5 2 6 8 6 7 5 3
25 21 27 26 25 28 29 29 30 30 29 27 20 10 10 9 12 10 7 3 2 4 5 3 1 2 2 1 2 1 2 1 3 3 2 5 5 0 3 7 4 7 3 3 1 1 3
24 21 26 24 25 27 28 29 29 26 27 24 19 13 13 12 3 11 6 2 4 6 4 3 2 0 2 2 2 1 3 6 4 5 5 6 5 6 3 7 5 8 4 3 4 4 3
24 21 24 23 24 26 28 29 27 23 19 16 15 14 13 12 6 7 4 2 9 1 1 1 1 0 1 1 3 5 2 5 6 4 2 4 7 6 9 1 4 5 3 2 2 1 2
21 21 22 22 23 25 28 29 26 27 16 6 9 8 10 13 7 2 3 6 3 1 2 3 3 3 4 2 1 2 3 6 4 6 4 5 5 5 5 4 3 7 4 1 2 3 5
19 20 20 20 22 24 26 26 25 26 18 9 6 6 8 16 11 3 4 9 4 1 2 2 2 1 1 3 1 3 5 4 6 4 3 5 3 3 6 7 7 4 4 3 3 3 4
17 18 17 20 21 21 24 23 22 21 18 8 5 3 11 21 7 4 4 3 2 3 1 3 2 5 3 2 3 3 4 1 6 7 5 4 3 6 5 5 6 6 5 4 3 2 3
14 15 13 17 19 17 21 22 20 23 17 19 7 4 17 19 4 2 3 2 2 5 4 4 3 3 2 4 5 3 2 1 8 4 3 4 3 1 2 4 4 4 4 2 3 5 3
12 12 11 15 17 15 18 21 20 19 18 7 2 3 7 8 4 3 4 4 4 7 5 4 5 4 4 3 4 2 2 3 6 5 2 3 3 3 8 6 6 5 5 3 3 2 2
9 10 8 11 14 13 13 15 16 15 16 3 3 5 4 4 2 3 3 4 2 5 3 3 4 4 3 6 6 3 2 3 5 2 9 4 3 5 4 5 3 5 6 4 4 3 2
9 10 8 8 11 10 10 12 15 14 11 2 2 3 5 4 5 6 3 2 3 5 5 8 5 6 2 3 3 3 3 2 4 8 5 4 3 3 2 4 3 3 4 6 4 3 3
11 11 10 8 8 7 7 9 12 11 10 6 2 3 3 2 4 6 6 4 2 1 4 4 4 4 6 4 1 2 2 3 1 5 3 3 1 3 4 4 4 3 4 3 3 2 3
14 12 12 10 7 5 5 4 7 9 5 4 4 2 2 1 4 4 5 5 6 2 2 4 1 2 5 2 0 1 3 4 2 1 2 3 3 3 3 6 6 5 4 4 2 3 3
18 14 14 13 9 6 3 2 3 6 10 6 2 2 2 1 3 2 4 5 6 6 3 3 4 2 0 4 1 3 4 5 7 5 2 3 2 2 2 4 4 6 3 1 4 6 5
21 17 16 16 13 9 5 4 3 2 6 7 4 4 3 0 2 3 5 3 4 5 5 4 4 2 3 3 2 2 4 5 2 3 4 3 3 2 2 2 5 3 4 4 4 5 7
24 21 18 18 16 12 9 7 6 5 3 4 6 4 4 4 2 2 2 0 0 2 5 2 2 3 3 2 1 2 1 2 4 5 4 3 5 3 1 1 4 3 2 4 3 4 6
26 24 21 19 20 16 12 10 9 7 5 4 2 4 2 2 3 3 3 2 1 2 1 3 4 3 3 1 1 2 2 2 1 2 2 2 3 3 2 3 7 5 5 3 1 5 5
28 27 24 22 22 19 15 13 11 11 9 8 3 9 1 1 4 4 4 4 1 2 2 2 3 2 2 1 2 2 2 3 1 3 4 5 5 3 1 1 6 6 4 6 5 1 6
30 31 28 26 26 22 18 16 15 15 13 10 4 8 12 3 4 4 6 8 7 7 5 1 2 3 4 2 0 1 2 1 2 3 1 3 6 4 8 6 4 9 6 6 5 5 5
Wind_Direction
353 345 346 349 344 346 338 333 330 327 325 326 321 322 308 309 325 331 333 332 324 199 172 209 232 277 173 139 250 176 160 166 172 179 185 201 200 217 201 199 231 225 245 251 254 260 256
352 347 357 348 346 344 335 333 331 328 325 324 320 322 323 302 310 328 329 326 313 245 177 174 208 237 124 263 249 172 167 174 173 175 200 213 238 211 247 237 222 254 262 262 264 257 254
354 353 353 347 348 340 337 332 327 322 323 324 322 320 318 323 295 318 328 325 314 152 177 166 186 170 179 241 101 174 193 192 198 196 193 225 165 196 245 274 241 250 269 275 263 249 240
359 356 352 349 342 339 333 327 330 333 332 324 319 315 314 316 310 311 323 317 266 273 214 149 166 148 248 279 299 242 218 229 238 211 207 177 170 245 220 288 282 242 230 302 308 251 247
356 355 351 345 342 339 334 338 341 338 331 324 320 318 312 316 316 310 327 327 199 174 110 136 155 137 273 313 265 241 231 244 198 200 200 160 150 213 240 246 270 274 279 281 300 225 236
347 350 348 350 347 340 342 343 343 340 335 326 314 308 313 312 324 324 338 358 130 134 120 135 349 34 283 25 126 127 171 181 182 132 116 201 213 238 261 216 269 261 286 283 300 316 281
343 345 350 352 348 343 344 345 348 350 352 344 336 310 322 315 327 334 347 105 65 42 199 183 182 249 41 338 229 240 206 167 122 167 200 197 220 252 239 216 221 248 265 272 290 289 306
335 346 352 355 346 345 345 351 351 351 357 358 355 355 346 25 84 342 28 100 118 120 137 229 260 266 302 287 329 287 165 165 159 216 211 244 244 253 250 263 258 261 253 284 289 274 252
339 342 354 356 349 347 349 352 351 355 359 359 11 13 29 46 69 60 66 53 274 203 80 40 157 200 246 148 282 212 164 221 225 255 248 196 259 296 35 329 344 290 252 327 310 320 299
345 349 359 355 349 350 351 355 353 356 358 1 11 23 36 79 76 28 69 54 87 23 87 353 50 347 344 122 9 277 198 213 295 256 288 253 270 347 334 310 28 302 268 339 319 347 311
349 345 0 353 351 353 354 355 354 352 354 360 10 43 71 61 80 45 355 30 64 43 84 331 18 295 9 39 259 281 276 357 264 287 75 259 286 296 333 274 293 262 283 272 279 295 322
350 347 360 353 354 357 356 356 355 359 358 13 17 23 69 68 56 24 5 40 107 50 57 353 10 32 40 325 265 286 273 204 250 305 281 263 281 349 294 285 279 316 263 306 229 131 52
349 348 357 353 357 358 358 357 0 1 0 20 31 67 72 56 21 4 22 27 52 71 276 358 60 59 346 306 314 290 26 25 28 21 352 337 323 324 352 334 327 357 33 7 19 33 83
349 350 352 356 358 357 359 358 1 1 9 25 42 73 67 62 52 55 37 52 63 334 103 233 94 212 49 300 338 7 52 16 358 44 46 49 347 358 327 332 272 311 17 81 101 103 81
349 353 350 356 356 359 2 5 10 7 4 32 48 31 31 26 41 53 73 54 96 319 323 14 354 62 354 324 215 83 66 2 14 13 24 12 306 341 351 327 27 321 32 21 31 3 64
349 352 352 353 357 4 3 6 7 21 14 356 14 357 11 357 347 347 71 85 85 51 333 27 108 32 108 329 20 79 19 344 329 346 248 317 336 8 311 10 359 72 302 48 5 71 71
345 351 347 348 357 8 4 7 9 19 16 1 357 40 346 340 345 43 84 69 16 327 14 79 23 57 69 8 44 50 344 294 351 319 25 351 86 314 11 15 14 358 11 21 100 34 126
339 345 341 344 352 6 7 7 6 9 26 27 355 11 347 350 51 21 30 24 353 346 1 29 100 79 70 31 41 78 81 307 333 317 5 325 110 23 326 290 322 90 357 69 93 316 30
329 336 331 336 351 5 12 5 3 3 22 91 62 272 332 355 78 359 350 24 41 15 7 29 28 28 47 56 93 75 58 320 357 31 44 323 33 22 342 347 1 29 332 25 110 37 29
314 321 311 329 347 357 16 5 5 0 354 43 68 12 330 23 29 22 34 19 24 8 38 18 22 49 53 39 29 88 59 356 341 2 25 81 78 138 166 213 231 331 331 9 88 79 206
294 300 287 314 340 355 353 13 8 3 350 352 29 157 141 330 339 337 357 41 11 2 350 18 45 24 306 61 41 44 359 2 351 355 30 76 79 2 283 289 292 251 296 341 61 179 122
279 283 275 281 322 346 349 7 15 11 345 59 94 93 341 187 306 352 352 357 39 354 15 356 81 15 33 93 97 302 333 47 326 341 45 10 141 63 325 311 14 304 299 293 270 247 283
266 269 268 262 289 329 332 353 18 28 42 96 99 45 82 268 357 9 331 336 347 355 40 52 318 98 58 76 352 144 106 93 98 95 49 58 110 60 292 348 352 352 227 202 244 207 188
259 259 265 256 264 285 299 302 17 65 75 97 66 120 51 326 100 182 346 2 354 352 336 11 15 95 319 337 113 85 56 69 69 44 77 116 88 109 241 8 20 247 296 226 221 243 218
253 254 255 252 252 262 260 238 210 180 119 121 132 140 123 126 300 352 19 347 350 346 10 351 1 329 298 36 56 17 336 1 10 53 27 69 107 58 103 207 290 272 238 199 178 289 200
247 248 246 246 244 247 250 236 220 222 202 163 132 115 116 126 238 260 294 296 133 326 340 345 342 323 38 90 95 110 251 218 330 342 48 76 79 112 71 132 218 245 189 130 92 290 190
243 242 242 240 238 238 238 234 219 209 217 219 236 171 127 139 253 165 183 183 140 97 228 306 326 358 43 57 89 148 289 176 293 257 215 27 12 143 180 256 285 241 153 138 77 239 170
236 236 237 237 232 230 235 232 225 214 207 212 220 206 211 271 274 183 168 154 118 120 160 252 18 351 20 43 122 230 177 232 220 220 193 183 152 211 104 14 298 153 77 169 220 98 165
231 231 232 231 230 225 225 226 218 211 205 201 241 220 212 193 237 215 241 242 215 207 153 194 200 212 213 121 198 111 269 37 170 277 129 249 192 187 188 218 237 209 197 211 177 162 198